Location: Novokuznetsk
(53.7500°N, 87.1000°E)
Time: 23:37:14
(UTC+06:00)

ISS - Pass Details

Date: 22 May 2021
Orbit: 417 x 422 km, 51.6° (Epoch: 16 June)

Event Time Altitude Azimuth Distance (km) Brightness Sun altitude
Rises 23:55:36 0° 278° (W) 2,371 0.2 -15.7°
Reaches altitude 10° 23:58:01 10° 262° (W) 1,504 -1.0 -15.7°
Enters shadow 23:59:31 18° 239° (WSW) 1,117 -1.9 -15.7°
